Regional Weather Roundup
Issued by NWS Sioux Falls, SD

Home | Current Version | Previous Version | Graphics & Text | Print | Product List | Glossary On
Versions: 1 2 3 4 5 6 7 8 9 10 11 12 13 14 15 16 17 18 19 20 21 22 23 24 25 26 27 28 29 30 31 32 33 34 35 36 37 38 39 40 41 42 43 44 45 46 47 48 49 50
307
ASUS43 KFSD 130510
RWRFSD

WEATHER ROUNDUP FOR SE SOUTH DAKOTA/SW MINNESOTA/NW IOWA
NATIONAL WEATHER SERVICE SIOUX FALLS SD
1100 PM CST FRI FEB 12 2016

NOTE: "FAIR" INDICATES FEW OR NO CLOUDS BELOW 12,000 FEET WITH NO
SIGNIFICANT WEATHER AND OR OBSTRUCTIONS TO VISIBILITY.


SDZ038>040-050-052>070-130600-
SOUTHEAST SOUTH DAKOTA

CITY           SKY/WX    TMP DP  RH WIND       PRES   REMARKS
BROOKINGS      CLOUDY    -6 -11  79 NE5       30.57F WCI -17
CHAMBERLAIN    CLOUDY    11   5  77 E9        30.57R WCI  -2
HURON          CLOUDY     1  -5  75 CALM      30.63S
MADISON        FAIR      -2  -8  78 N6        30.57F WCI -14
MITCHELL       CLOUDY     6  -2  69 E5        30.64R WCI  -3
SIOUX FALLS    CLOUDY     0  -7  72 N3        30.61S
WINNER         CLOUDY    18   9  68 SE15      30.49F WCI   4
YANKTON        CLOUDY     9   0  66 E6        30.64S WCI  -1
$$

MNZ071-072-080-081-089-090-097-098-130600-
SOUTHWEST MINNESOTA

CITY           SKY/WX    TMP DP  RH WIND       PRES   REMARKS
FAIRMONT       CLOUDY     0  -8  71 NW15      30.58R WCI -20
JACKSON        CLOUDY     0  -8  71 NW9       30.59R WCI -16
LUVERNE        CLOUDY     1  -8  66 N5        30.62S WCI  -8
MARSHALL       CLOUDY    -3  -9  75 NW12      30.64S WCI -21
MONTEVIDEO     CLOUDY    -6  -9  84 NW6       30.67R WCI -18
PIPESTONE      CLOUDY    -2 -13  60 N5        30.57S WCI -12
REDWOOD FALLS  CLOUDY    -1  -7  75 NW10      30.64R WCI -17
TRACY          CLOUDY    -2  -7  78 NW10      30.62R WCI -19
WINDOM         CLOUDY    -2  -8  78 NW9       30.59R WCI -18
WORTHINGTON    CLOUDY    -4 -11  71 N8        30.59S WCI -19
$$

IAZ001>003-012>014-020>022-031-032-NEZ013-014-SDZ071-130600-
NORTHWEST IOWA

CITY           SKY/WX    TMP DP  RH WIND       PRES   REMARKS
CHEROKEE       CLOUDY     1  -5  76 N6        30.63S WCI -11
DENISON        CLOUDY     3  -2  78 CALM      30.61R
ESTHERVILLE    CLOUDY    -2  -7  79 NW14      30.60R WCI -21
LE MARS        CLOUDY     3  -4  72 N3        30.65S
ORANGE CITY    CLOUDY     1  -4  78 CALM      30.61S
SHELDON        CLOUDY    -4  -8  84 SW3       30.61R
SIOUX CITY     CLOUDY     9  -5  53 NE8       30.64S WCI  -3
SPENCER        CLOUDY    -2  -9  72 NW8       30.62R WCI -17
STORM LAKE     CLOUDY     0  -6  78 N9        30.60R WCI -16
$$

ABBREVIATIONS USED IN REMARKS
   TC - TEMPERATURE IN CELSIUS
  WCI - WIND CHILL INDEX
   HX - HEAT INDEX
  VSB - VISIBILITY





USA.gov is the U.S. government's official web portal to all federal, state and local government web resources and services.